Hourly Data Report for December 25, 2003

All times are specified in Local Standard Time (LST). Add 1 hour to adjust for Daylight Saving Time where and when it is observed.

TORONTO CITY
ONTARIO

43°40'00.000" N
79°24'00.000" W
112.50 m
6158355
71508
XTO

Download Data

Hourly Data (December 2003)
Hourly Data Report for December 25, 2003
TIME Temp Definition
°C
Dew Point Definition
°C
Rel Hum Definition
%
Wind Dir Definition
10's deg

Wind Spd Definition
km/h
Visibility Definition
km
Stn Press Definition
kPa
Hmdx Definition


Wind Chill Definition


Weather Definition


00:00 2.7 -0.8 78 LegendMM LegendMM LegendMM 99.57     LegendNANA
01:00 2.2 -2.5 71 LegendMM LegendMM LegendMM 99.61     LegendNANA
02:00 1.8 -2.0 76 LegendMM LegendMM LegendMM 99.63     LegendNANA
03:00 1.7 -2.1 76 LegendMM LegendMM LegendMM 99.68     LegendNANA
04:00 1.5 -2.8 73 LegendMM LegendMM LegendMM 99.69     LegendNANA
05:00 1.2 -3.1 73 LegendMM LegendMM LegendMM 99.68     LegendNANA
06:00 0.8 -3.6 72 LegendMM LegendMM LegendMM 99.70     LegendNANA
07:00 0.7 -3.3 75 LegendMM LegendMM LegendMM 99.75     LegendNANA
08:00 0.8 -3.1 75 LegendMM LegendMM LegendMM 99.81     LegendNANA
09:00 0.4 -3.1 77 LegendMM LegendMM LegendMM 99.85     LegendNANA
10:00 0.7 -2.7 78 LegendMM LegendMM LegendMM 99.85     LegendNANA
11:00 1.9 -2.0 75 LegendMM LegendMM LegendMM 99.80     LegendNANA
12:00 1.5 -3.7 68 LegendMM LegendMM LegendMM 99.72     LegendNANA
13:00 2.6 -3.5 64 LegendMM LegendMM LegendMM 99.68     LegendNANA
14:00 2.5 -3.7 64 LegendMM LegendMM LegendMM 99.72     LegendNANA
15:00 2.2 -5.0 59 LegendMM LegendMM LegendMM 99.80     LegendNANA
16:00 1.6 -3.9 67 LegendMM LegendMM LegendMM 99.86     LegendNANA
17:00 0.9 -4.6 67 LegendMM LegendMM LegendMM 99.90     LegendNANA
18:00 0.7 -4.5 68 LegendMM LegendMM LegendMM 99.92     LegendNANA
19:00 0.6 -4.4 69 LegendMM LegendMM LegendMM 100.00     LegendNANA
20:00 0.2 -3.6 76 LegendMM LegendMM LegendMM 100.08     LegendNANA
21:00 0.6 -2.9 77 LegendMM LegendMM LegendMM 100.10     LegendNANA
22:00 1.0 -3.6 71 LegendMM LegendMM LegendMM 100.15     LegendNANA
23:00 1.1 -4.9 64 LegendMM LegendMM LegendMM 100.16     LegendNANA

Notes on Data Quality.

Legend

  • E = Estimated
  • M = Missing
  • NA = Not Available*
  • [empty] = Indicates an unobserved value
Date modified: